Regional Weather Roundup
Issued by NWS Pendleton, OR

Current Version | Previous Version | Text Only | Print | Product List | Glossary On
Versions: 1 2 3 4 5 6 7 8 9 10 11 12 13 14 15 16 17 18 19 20 21 22 23 24 25 26 27 28 29 30 31 32 33 34 35 36 37 38 39 40 41 42 43 44 45 46 47 48 49 50
000
ASUS46 KPDT 270310
RWRPDT
PENDLETON REGIONAL WEATHER ROUNDUP
NATIONAL WEATHER SERVICE PENDLETON OREGON
800 PM PDT TUE MAY 26 2015

NOTE: FAIR INDICATES FEW OR NO CLOUDS BELOW 12,000 FEET WITH NO
SIGNIFICANT WEATHER AND/OR OBSTRUCTIONS TO VISIBILITY.

# INDICATES UNOFFICIAL STATION AND DATA

WAZ520-270410-
EAST SLOPES OF WASHINGTON CASCADES

CITY            SKY/WX      TMP DP  RH  WIND    PRES   REMARKS
#BULLFROG 2SW   N/A         58  46  64  W1      27.60R
#BUMPING DAM    N/A         58  N/A N/A S6      N/A
#CLE ELUM HS    N/A         60  46  60  SW7     29.93R
#CLE ELUM LAKE  N/A         56  48  74  CALM    29.91R
#CLIFFDEL 2NW   N/A         57  44  62  NW5     N/A
#EASTON DOT     N/A         56  33  42  N2      N/A
#GLENWOOD       N/A         60  57  90  CALM    29.91S
#NELSON         N/A         61  48  62  CALM    29.94R
#NELSON 3SW     N/A         57  46  67  CALM    30.13R
#NILE           N/A         62  47  58  W3      29.20R
#PEOH POINT     N/A         53  44  71  W5      N/A
#RONALD 2NW     N/A         59  41  51  N1      29.87R
#SNOWDEN        N/A         60  35  39  NW3     N/A
#TEANAWAY 4NE   N/A         59  56  90  CALM    N/A
#TROUT LAKE 1NE N/A         62  57  84  CALM    29.91S
$$

WAZ521-270410-
SIMCOE HIGHLANDS

CITY            SKY/WX      TMP DP  RH  WIND    PRES   REMARKS
#SATUS PASS DOT N/A         61  39  44  CALM    N/A
#CENTERVILLE 4W N/A         64  50  60  NW6     29.70R
#CENTERVILLE 1SWN/A         63  50  62  NW9     29.86S
#GOLDENDALE     N/A         65  52  63  W12     N/A
#GOODNOE HILLS  N/A         68  50  53  NE7     N/A
#LYLE 6NE       N/A         62  50  65  SW8     29.88R
$$

WAZ026-270410-
KITTITAS VALLEY

CITY            SKY/WX      TMP DP  RH  WIND    PRES   REMARKS
ELLENSBURG AP   LGT RAIN    63  55  75  N5      29.96R
YTC-OPS AREA    N/A         58  46  64  W10     29.95F
#ELLENSBURG CWU N/A         62  53  72  E1      29.86R
#ELLENSBURG 3NE N/A         60  54  81  CALM    29.95S
#ELLENSBURG 1E  N/A         61  51  70  CALM    N/A
#KITTITAS 4N    N/A         59  53  80  NW1     28.27S
#KITTITAS 3S    N/A         59  55  87  CALM    29.90R
#THORP 6N       N/A         59  49  69  W8      29.93S
$$

WAZ027-270410-
YAKIMA VALLEY

CITY            SKY/WX      TMP DP  RH  WIND    PRES   REMARKS
SUNNYSIDE AP    PTCLDY      64  50  60  S6      29.93R
YAKIMA AIRPORT  MOCLDY      70  50  49  N9      29.94R
#DONALD 2NE     N/A         65  48  54  S1      28.78R
#GRANDVIEW      N/A         65  51  60  CALM    29.91R
#MABTON         N/A         67  53  61  CALM    29.91R
#MOXEE 2E       N/A         53  37  54  W3      29.91
#NACHES 2SW     N/A         63  53  70  SW1     29.94S
#TERRACE HTS    N/A         66  50  56  CALM    29.85R
#TOPPENISH      N/A         70  50  49  SE2     29.82R
#WAPATO 4NE     N/A         65  48  54  S1      28.78R
#WEST VALLEY    N/A         66  51  58  CALM    29.88R
#W YAKIMA       N/A         65  53  65  CALM    29.90R
#WHITE SWAN 5E  N/A         69  53  57  NE5     29.90R
#WILEY CITY 3W  N/A         60  51  72  W2      29.91R
$$

WAZ028-270410-
LOWER COLUMBIA BASIN...WASHINGTON

CITY            SKY/WX      TMP DP  RH  WIND    PRES   REMARKS
PASCO           MOCLDY      67  58  73  CALM    29.90F
RICHLAND AWOS   MOCLDY      66  59  78  CALM    29.90F
#BASIN CITY 5SW N/A         69  59  70  CALM    29.90F
#BENTON CITY    N/A         64  55  73  CALM    29.80S
#CONNELL 5N     N/A         66  53  63  CALM    29.89R
#CONNELL 5NW    N/A         65  55  70  CALM    29.85S
#ELTOPIA        N/A         69  59  70  CALM    29.85S
#ELTOPIA 6NW    N/A         68  56  65  S1      28.88F
#KAHLOTUS       N/A         63  54  72  SW6     29.89R
#KENNEWICK      N/A         58  46  64  W1      27.60R
#KENNEWICK 3S   N/A         63  57  81  CALM    29.89S
#PATERSON       N/A         67  53  61  NE8     29.85S
#PROSSER DOT    N/A         65  53  65  E7      N/A
#PROSSER        N/A         65  50  58  CALM    29.88R
#SAGEMOOR 2W    N/A         68  59  73  CALM    29.74S
#TOUCHET 2S     N/A         66  56  70  CALM    29.87R
#WEST PASCO     N/A         71  56  59  N1      29.87F
$$

WAZ029-270410-
FOOTHILLS OF THE BLUES...WASHINGTON

CITY            SKY/WX      TMP DP  RH  WIND    PRES   REMARKS
WALLA WALLA AP  MOCLDY      65  53  65  NE6     29.91S
#DAYTON SCHOOL  N/A         65  47  52  N1      29.93S
#LOWDEN 2SE     N/A         66  53  63  NW1     29.86R
#PLEASANT VIEW 1N/A         61  52  72  CALM    29.92S
#PRESCOTT       N/A         64  56  75  CALM    29.87S
#SUDBURY        N/A         65  N/A N/A CALM    N/A
#WHITMAN COLLEGEN/A         66  53  63  N2      29.92S
#WAITSBURG 8N   N/A         59  31  34  CALM    29.76S
#WALLA WALLA U  N/A         69  53  57  CALM    29.87R
#WHITMAN MISSIONN/A         67  54  63  CALM    29.88S
$$

WAZ030-270410-
BLUE MOUNTAINS...WASHINGTON

CITY            SKY/WX      TMP DP  RH  WIND    PRES   REMARKS
#DIXIE 5SE      N/A         59  44  57  NE5     29.89S
$$

ORZ009-041-WAZ024-270410-
COLUMBIA RIVER GORGE

CITY            SKY/WX      TMP DP  RH  WIND    PRES   REMARKS
HOOD RIVER AP   CLEAR       64  48  56  CALM    29.95S
THE DALLES AP   PTCLDY      68  47  47  NW14    29.91R
#ARLINGTON AIRPON/A         69  49  49  N8      29.82S
#MARYHILL       N/A         68  49  51  SE1     N/A
#MOSIER 1S      N/A         65  37  35  W3      29.94R
#MURDOCK        N/A         69  50  51  NW15G24 29.92R
#RUFUS DOT      N/A         74  50  43  N9      N/A

$$

ORZ510-270410-
NORTH CENTRAL OREGON

CITY            SKY/WX      TMP DP  RH  WIND    PRES   REMARKS
#CHENOWITH 1W   N/A         61  46  58  W24     N/A
#COW CYN RST AREN/A         67  49  52  NW8     N/A
#DUFUR 9E       N/A         60  46  60  NW12    29.96R
#GRASS VALLEY 1SN/A         64  46  52  N13     29.92R
#KENT DOT       N/A         63  35  35  N12     N/A
#MAUPIN SCHOOL  N/A         71  45  39  CALM    29.92R
#MORO SCHOOL    N/A         64  52  65  NW13    29.95R
#SHANIKO 5WSW   N/A         62  34  35  NW17    N/A
#SHANIKO 4NW    N/A         60  39  46  N14     29.98
#TYGH VALLEY 2NEN/A         70  45  41  N13     29.87R
#WAPANITIA AIRPON/A         68  43  40  NW5     29.90R
#WASCO DOT      N/A         69  48  47  NW10    N/A
#WASCO 5NE      N/A         66  49  54  W5      29.89R
$$

ORZ511-270410-
CENTRAL OREGON

CITY            SKY/WX      TMP DP  RH  WIND    PRES   REMARKS
BEND AIRPORT    PTCLDY      66  37  34  N9      29.96R
MADRAS AIRPORT  PTCLDY      66  41  40  N15     29.96R
PRINEVILLE AP   PTCLDY      66  41  40  N14     29.94R
REDMOND AIRPORT PTCLDY      65  44  46  N14     29.94R
#BEND 1SW       N/A         63  43  48  N1      N/A
#BEND-AWBREY    N/A         66  44  45  N3      29.87R
#BEND-KIM LN    N/A         65  44  46  NW5     29.93R
#CROOKED RVR RANN/A         66  47  50  NE5     29.86R
#CULVER         N/A         68  46  45  NW9     29.90R
#LAKE BILLY CHINN/A         66  15  14  N9      30.00R
#POWELL BUTTE 3EN/A         68  41  37  N8      N/A
#POWELL BUTTE   N/A         65  43  45  NE5     29.59R
#PRINEVILLE 3N  N/A         64  45  50  N8      29.83R
#WARM SPRINGS   N/A         70  46  42  S12     29.89R

$$


ORZ509-270410-
EAST SLOPES OF OREGON CASCADES

CITY            SKY/WX      TMP DP  RH  WIND    PRES   REMARKS
#CAMP SHERMAN   N/A         63  44  50  CALM    29.92R
#LA PINE 4NW    N/A         61  41  48  CALM    29.93R
#SISTERS AIRPOR N/A         65  50  58  N5      30.17S
#SISTERS ODOT   N/A         65  N/A N/A S8      N/A
#SISTERS 3N     N/A         62  41  46  N2      29.95R
#SUNRIVER       N/A         64  42  45  NW1     29.78R
#TUMALO 3W      N/A         64  43  46  N8      29.76R
#WANOGA BUTTE D N/A         55  36  49  NW2     N/A

$$

ORZ044-270410-
LOWER COLUMBIA BASIN...OREGON

CITY            SKY/WX      TMP DP  RH  WIND    PRES   REMARKS
HERMISTON       MOCLDY      68  50  53  NE8     29.89S
#BOARDMAN SCHOOLN/A         69  55  61  NW3     29.91R
#ECHO 8SW       N/A         67  50  54  NE7     29.91R
#IONE SCHOOL    N/A         68  49  51  NE5     29.89R
#IRRIGON 4NW    N/A         69  52  55  N10G24  N/A
#UMATILLA SCHOOLN/A         68  58  70  SE5     29.96R
#UMATILLA       N/A         70  50  49  CALM    29.80S
$$

ORZ507-270410-
NORTHERN FOOTHILLS OF THE BLUES

CITY            SKY/WX      TMP DP  RH  WIND    PRES   REMARKS
PENDLETON AIRPT MOCLDY      65  49  56  NE13    29.90S
#ADAMS 3WNW     N/A         63  52  67  N6      29.86R
#ATHENA         N/A         63  51  65  CALM    29.90R
#CAYUSE         N/A         63  52  67  N5      29.86R
#HELIX SCHOOL   N/A         63  50  62  NE6     29.87R
#HELIX 3N       N/A         62  49  62  N12     29.90S
#HOLDMAN 6E     N/A         64  49  58  S7      29.69S
#M-F FERNDALE   N/A         67  50  54  CALM    29.89S
#M-F GROVE ELEM N/A         66  50  56  CALM    29.89R
#M-FREEWATER 5SEN/A         66  53  63  CALM    29.91R
#PENDLETON DNTN N/A         68  43  40  CALM    29.90R
#PDT AQUATIC CTRN/A         68  46  45  NE7     29.92S
#PENDLETON 5NE  N/A         64  53  67  NE8     29.88R
#PDT SUNRIDGE   N/A         67  51  56  N3      29.91R
#PENDLETON 7NW  N/A         67  52  59  NE7     29.49F
#PILOT ROCK     N/A         65  49  56  N5      29.94R
#TUTUILLA       N/A         64  52  65  NE6     29.89R
#UMAPINE 2E     N/A         65  55  70  W1      29.87R
#WESTON SCHOOL  N/A         62  49  62  CALM    29.88R

$$

ORZ508-270410-
SOUTHERN FOOTHILLS OF THE BLUES

CITY            SKY/WX      TMP DP  RH  WIND    PRES   REMARKS
#AJAX           N/A         63  42  46  W5      29.89R
#CONDON 5W      N/A         60  42  51  N12     29.94R
#FOSSIL SCHOOL  N/A         65  44  46  N9      29.92R
#HEPPNER EOC    N/A         67  48  50  NE8     29.80S
#HEPPNER 4NE    N/A         62  47  58  VRB2    29.88R
#LEXINGTON 2SE  N/A         69  50  51  N3      29.87R
#RUGGS 5NE      N/A         66  42  42  N6      30.14R
#RUGGS 2SW      N/A         63  42  46  NW7     29.90R

$$

ORZ502-503-270410-
BLUE MOUNTAINS

CITY            SKY/WX      TMP DP  RH  WIND    PRES   REMARKS
MEACHAM         PTCLDY      56  46  69  CALM    29.98R
#HEPPNER 15SE   N/A         57  44  62  W1      29.88S
#LADD CYN SMT   N/A         61  37  41  W8      N/A
#LONG CREEK HS  N/A         61  48  62  CALM    29.91R
#N POWDER DOT   N/A         61  43  51  N8      N/A
#PIKES PEAK     N/A         57  47  69  NE5     27.99S
#TOLLGATE       N/A         51  45  80  CALM    29.94R
#TROY SCHOOL    N/A         65  50  58  E1      29.72S
#UKIAH          N/A         60  46  60  N3      29.93R
#WESTON 4E      N/A         57  49  75  N1      29.84R
$$

ORZ505-270410-
JOHN DAY BASIN

CITY            SKY/WX      TMP DP  RH  WIND    PRES   REMARKS
JOHN DAY        PTCLDY      63  42  46  N8      29.95R
#JOHN DAY KJDY  N/A         68  -36  1  NW3     29.93F
#DAYVILLE SCHOOLN/A         71  35  27  N6      29.88R
#MITCHELL       N/A         69  45  42  CALM    30.06S
#MONUMENT HS    N/A         70  40  34  N6      29.91R
#MT. VERNON 5SE N/A         62  43  50  CALM    29.91R
$$

ORZ506-270410-
OCHOCO AND JOHN DAY HIGHLANDS

CITY            SKY/WX      TMP DP  RH  WIND    PRES   REMARKS
#PAULINA SCHOOL N/A         66  36  33  N3      29.92R
#PINE MTN OBS   N/A         52  37  56  N5      N/A
#PRAIRIE CITY   N/A         64  43  46  N1      29.83R
#SENECA         N/A         60  N/A N/A N1      N/A
#SENECA 9NW     N/A         59  38  45  CALM    29.86R
$$

ORZ049-270410-
GRANDE RONDE VALLEY

CITY            SKY/WX      TMP DP  RH  WIND    PRES   REMARKS
LA GRANDE       MOCLDY      63  43  48  N6      29.93R
#COVE           N/A         63  52  67  N3      29.94R
#COVE SCHOOL    N/A         64  48  56  NW1     29.91R
#ELGIN 3N       N/A         65  42  43  CALM    29.92R
#ELGIN 1E       N/A         66  45  47  CALM    N/A
#ISLAND CITY 4N N/A         67  54  63  N1      29.98S
#LADD CYN DOT   N/A         65  44  46  W2      N/A
#LA GRANDE ELEM N/A         63  46  54  W2      29.96R
#UNION 1S       N/A         65  48  54  CALM    29.78R
$$

ORZ050-270410-
WALLOWA COUNTY

CITY            SKY/WX      TMP DP  RH  WIND    PRES   REMARKS
#ENTERPRISE HS  N/A         57  49  75  SE1     29.98R
#IMNAHA SCHOOL  N/A         62  52  70  CALM    29.93R
#IMNAHA 10S     N/A         59  52  78  CALM    29.94R
#JOSEPH 3N      N/A         56  44  64  SE1     30.00R
#JOSEPH 3W      N/A         49  47  93  SW2     29.84S
#LOSTINE        N/A         58  50  75  CALM    29.69S
#MT HOWARD 8000 N/A         38  36  92  NW2     30.09R
#PROMISE 1S     N/A         56  45  66  CALM    30.01R
#SHEEP RDG 7000 N/A         44  39  82  CALM    29.96R
#WALLOWA SCHOOL N/A         61  50  67  CALM    30.79R



$$



USA.gov is the U.S. government's official web portal to all federal, state and local government web resources and services.